Location: Napa Soda Springs
(38.3907°N, 122.2794°W)
Time: 21:21:02
(UTC+00:00)

SL-19 R/B - Pass Details

Date: 29 October 2020
Orbit: 358 x 808 km, 99.4° (Epoch: 24 November)

Event Time Altitude Azimuth Distance (km) Brightness Sun altitude
Rises 13:34:32 0° 2° (N) 2,196 7.3 -12.0°
Reaches altitude 10° 13:36:33 10° 351° (N) 1,356 6.1 -11.6°
Maximum altitude 13:39:03 28° 289° (WNW) 731 4.4 -11.1°
Drops below altitude 10° 13:41:41 10° 227° (SW) 1,419 6.1 -10.6°
Sets 13:43:51 0° 215° (SW) 2,325 7.3 -10.2°
